User: anonymous   Login
Location: Feydey
(46.3431°N, 7.0106°E)
Time: 18:41:08
(UTC+00:00)
Language:

deb Atmosphere 2 - Orbit

View from above orbital plane
View from above orbital plane
View from above satellite
View from above satellite

Ground track
Ground track

The orbit data is extracted from the following two-line orbital elements,

1 20798U 90081H   22016.22512621  .00000473  00000-0  25465-3 0  9995
2 20798  98.6294  12.1466 0008660 274.6163  85.4023 14.17430427616126
Epoch (UTC): 16 January 2022 05:24:10
Eccentricity: 0.0008660
inclination: 98.6294°
perigee height: 828 km
apogee height: 840 km
right ascension of ascending node: 12.1466°
argument of perigee: 274.6163°
revolutions per day: 14.17430427
mean anomaly at epoch: 85.4023°
orbit number at epoch: 61612

The dashed part of the orbit path shows where the satellite is in the earth's shadow,  

DLR